Location: Paimpol
(48.7798°N, 3.0488°W)
Time: 13:38:35
(UTC+01:00)

BlueWalker 3 - Visible Passes

Search period start: 16 January 2026 00:00
Search period end: 26 January 2026 00:00
Orbit: 451 x 463 km, 53.2° (Epoch: 16 January)

Date Brightness Start Highest point End Pass type
(mag) Time Alt. Az. Time Alt. Az. Time Alt. Az.
20 Jan 4.2 20:32:26 10° SW 20:33:26 17° SSW 20:33:26 17° SSW visible
21 Jan 2.9 19:57:15 10° SSW 19:59:50 32° S 19:59:50 32° S visible
22 Jan 2.9 19:22:08 10° SSW 19:25:15 29° SE 19:26:10 25° ESE visible
22 Jan 4.6 20:59:00 10° WSW 20:59:55 17° WSW 20:59:55 17° WSW visible
23 Jan 3.2 18:47:05 10° SSW 18:49:58 23° SE 18:52:26 12° E visible
23 Jan 2.8 20:23:35 10° WSW 20:26:11 45° WSW 20:26:11 45° WSW visible
24 Jan 1.6 19:48:12 10° WSW 19:51:47 89° SSE 19:52:22 60° ENE visible
25 Jan 1.7 19:12:50 10° SW 19:16:24 74° SSE 19:18:30 23° ENE visible
25 Jan 4.1 20:50:40 10° W 20:52:15 23° WNW 20:52:15 23° WNW visible
